Showing default

KINEIS-2D, 62930

Orbit data source: Space-Track

KINEIS-2D, 62930 is a French payload satellite in SSO that was launched on Sat, 08 Feb 2025 UTC via an ELECTRON launch vehicle from the Rocket Lab Launch Complex (RLLC). Payload-class satellites include a variety of spacecraft equipped with specific instruments for various scientific and technological missions. These include communications satellites like Starlink; space stations such as the ISS; scientific satellites like the Hubble; Earth observation satellites from companies like Planet Labs, Umbra, and HawkEye 360; GPS; miniature CubeSats for education and research; and military/defense satellites.

Loading next visibility...
Identifier
62930, 2025-028C
Orbit
SSO
Country
Flag of FRFR
Related business
Manufacturer
KINEIS
Mission
Operational Commercial Communications
Bus & Motor
CUBESAT 16U, Unknown motor
Mass
28 kg wet, 28 kg dry
Launch date (UTC)
2025-02-08 (7 months ago)
Launch vehicle
ELECTRON
Launch site
Rocket Lab Launch Complex (RLLC)
Object type
Payload
Rocket body
Debris
Shape & HBR
Box + 2 Pan + 1 Ant, 0.8 m
Radar Cross Section
0.229 m², Medium (>0.1 m² and < 1m²)

Expand to show TLE details & history
Last TLE update: 9 hours ago

TLE from 9 hours ago
0 KINEIS-2D
1 62930U 25028C   25258.12884539  .00001364  00000-0  21340-3 0  9996
2 62930  97.9692 310.5085 0003610  34.3781 325.7660 14.74352659 32169
Epoch: 2025-09-15T03:05Z
TLE epoch observation values (Epoch: 2025-09-15T03:05:32.241Z)
Latitude
-0.0001°
Longitude
-90.21376°
Altitude
648.122 km
Speed
7.535 km/s
True Right ascension
20h 42m 02s
True Declination
0° 00' 00"
Sunlit
Object was in full shadow at epoch
Visualization orbit readout
Latitude
Unknown
Longitude
Unknown
Altitude
Unknown
Speed
Unknown
Apparent Right ascension
Unknown
Apparent Declination
Unknown
Sunlit
N/A
Visualization observer readout
Local Sidereal Time
04:51:36
Azimuth
Unknown
Elevation
Unknown
Doppler factor
Unknown
Orbital elements
Apogee altitude
646.794 km
Perigee altitude
641.723 km
Semi-major axis
7,022.395 km
Eccentricity
0.00036
Inclination
97.9692°
RAAN
310.5085°
Arg. of periapsis
34.3781°
True anomaly
325.74272°
Mean anomaly
325.766°
Eccentric anomaly
325.75436°
Mean motion
3.68821 °/min
Orbital period
97.61 mins
BSTAR
0.0002134
Loading maneuver chart data...
Computing Atmospheric mass density...
Loading historical data...
Loading historical data...
Loading historical data...
Loading historical data...
Loading historical data...
Loading historical data...
Loading historical data...

Documentation

Showing up to 5 results
|